Temperature
14 14 14 13 13 13 13 12 12 12 12 12 12 12 12 12 11 11 10 10 9 9 9 8 8 8 8 8 8 8 8 9 9 9 9 9 9 9 9 9 9 9 9
14 14 14 13 13 13 12 12 12 12 12 12 12 12 12 12 11 11 10 10 9 9 8 8 8 8 8 8 7 7 8 8 8 8 8 8 8 8 8 7 7 7 7
15 14 13 13 13 13 12 12 12 12 12 12 12 12 12 12 11 11 10 10 9 9 8 8 8 8 8 7 7 7 7 7 7 7 7 7 7 7 6 6 6 6 6
15 14 14 13 13 12 12 12 12 12 12 12 12 12 12 11 11 11 10 9 9 8 8 8 8 7 7 7 7 7 6 7 7 7 6 6 6 6 5 5 5 5 5
15 14 14 13 13 12 12 12 12 11 11 11 11 12 12 11 11 11 10 9 9 8 8 8 7 7 7 7 7 7 6 6 6 6 6 5 5 4 4 4 4 4 4
15 14 14 13 13 12 12 12 11 11 11 11 11 11 11 11 11 11 10 9 9 8 8 7 7 7 7 7 7 6 6 6 6 5 5 4 4 3 3 3 3 3 3
15 15 14 13 13 12 12 12 11 11 11 11 11 11 11 11 11 10 10 9 9 8 7 7 7 7 7 6 6 6 6 6 5 4 4 3 2 2 2 2 2 2 2
16 15 15 14 13 13 12 12 11 11 11 11 11 11 11 11 11 10 10 9 9 8 7 7 7 6 6 6 6 5 5 5 5 4 3 2 2 1 1 1 2 2 2
16 16 15 15 14 13 13 12 12 11 11 11 11 11 11 11 11 10 10 10 9 8 7 7 6 6 6 5 5 5 5 4 4 3 2 1 1 1 1 1 1 1 1
16 16 15 15 15 14 13 13 12 12 11 11 11 11 11 11 11 10 10 9 9 8 7 7 6 5 5 5 4 4 4 3 3 2 2 1 1 0 0 0 1 1 1
16 16 15 15 15 15 14 13 12 12 11 11 11 11 11 10 10 10 9 9 8 8 7 6 6 5 5 4 4 3 3 3 2 2 1 0 -0 -0 -0 -0 -0 -0 -0
15 16 15 15 15 15 14 14 13 12 11 11 10 10 10 10 10 9 9 8 8 7 6 6 5 5 4 4 3 2 2 2 2 1 1 -0 -1 -1 -1 -1 -1 -1 -1
15 15 15 15 15 15 14 13 12 11 11 10 10 9 9 9 9 9 8 7 7 6 6 5 5 4 4 3 2 1 1 1 1 1 0 -1 -1 -2 -2 -2 -2 -3 -3
15 15 15 15 15 14 14 13 12 11 10 9 9 8 8 8 8 7 6 6 5 5 5 5 4 3 2 2 1 0 0 -0 -0 -0 -0 -1 -1 -2 -3 -3 -3 -4 -4
14 14 14 14 14 14 13 12 11 10 9 9 8 7 7 6 6 6 5 4 4 3 3 3 3 2 1 1 0 -1 -1 -1 -1 -1 -1 -2 -2 -3 -4 -4 -4 -4 -4
13 13 13 13 13 13 12 11 10 9 8 7 6 6 6 5 5 4 4 3 2 1 1 1 1 0 0 0 -1 -1 -2 -2 -3 -2 -2 -3 -3 -4 -5 -5 -5 -5 -5
11 11 12 12 11 11 10 9 8 8 7 6 5 5 4 4 4 3 2 2 1 -0 -1 -0 -1 -1 -1 -1 -1 -2 -3 -3 -3 -3 -3 -4 -4 -4 -5 -5 -5 -5 -5
9 10 10 9 9 9 9 8 7 6 5 4 4 4 3 3 2 2 1 0 -1 -1 -2 -2 -2 -2 -2 -2 -3 -4 -4 -4 -4 -4 -4 -4 -4 -5 -5 -5 -6 -6 -6
8 8 8 8 8 8 7 6 5 4 4 3 3 3 3 2 2 1 0 -1 -1 -2 -2 -3 -3 -4 -4 -4 -5 -5 -5 -5 -5 -4 -4 -4 -4 -5 -5 -5 -6 -6 -6
8 8 8 7 7 6 5 4 3 3 3 3 3 2 2 1 0 -0 -1 -2 -2 -3 -3 -4 -5 -5 -6 -5 -6 -7 -7 -6 -5 -4 -4 -5 -5 -5 -5 -5 -5 -5 -5
6 6 6 5 4 4 3 3 2 2 2 2 2 1 1 0 -1 -2 -2 -3 -3 -4 -5 -5 -6 -7 -7 -7 -7 -8 -8 -7 -6 -5 -5 -5 -5 -5 -5 -5 -5 -5 -5
4 4 3 3 2 2 2 2 2 2 2 1 1 0 -0 -1 -2 -2 -3 -4 -5 -5 -6 -7 -7 -8 -8 -8 -8 -8 -8 -9 -8 -6 -7 -6 -6 -5 -5 -5 -5 -5 -5
2 1 1 1 1 1 1 1 1 1 1 0 -0 -1 -2 -2 -3 -3 -4 -4 -5 -5 -7 -8 -8 -8 -8 -8 -9 -9 -9 -9 -9 -8 -8 -7 -6 -6 -6 -6 -5 -5 -5
0 0 0 0 1 1 0 1 0 0 -0 -1 -2 -2 -3 -3 -4 -4 -5 -6 -6 -6 -7 -8 -8 -8 -9 -9 -9 -9 -9 -9 -8 -7 -7 -8 -6 -6 -6 -6 -5 -5 -5
-0 -0 -0 -0 0 -0 -0 -0 -1 -1 -2 -2 -3 -3 -4 -4 -5 -6 -7 -8 -7 -7 -7 -8 -8 -8 -8 -8 -8 -9 -8 -8 -9 -8 -7 -8 -7 -7 -7 -6 -5 -5 -6
-0 -0 -0 -0 -1 -1 -2 -2 -2 -3 -3 -3 -4 -4 -5 -5 -6 -8 -8 -8 -8 -8 -8 -7 -7 -7 -7 -7 -8 -8 -8 -9 -9 -9 -7 -8 -8 -9 -9 -7 -6 -6 -6
Wind_Speed
6 7 7 8 8 8 8 7 8 8 7 7 7 8 8 8 8 9 10 12 11 10 8 8 8 7 7 8 8 8 8 9 9 9 9 9 9 9 9 9 10 10 10
10 8 6 7 8 10 10 9 9 7 6 6 6 6 7 7 8 9 10 11 11 10 8 7 7 7 7 7 7 8 8 8 8 8 8 8 8 9 9 9 10 10 10
14 11 7 6 9 11 11 10 8 7 5 5 4 5 5 6 7 8 9 9 9 9 7 7 6 6 6 7 7 8 7 7 7 7 7 8 8 9 9 9 10 11 11
17 13 7 7 12 12 11 6 5 5 4 4 3 3 3 4 5 6 7 8 8 7 6 6 5 5 5 6 7 8 8 7 7 7 7 8 8 9 9 10 11 12 12
19 15 9 9 13 10 7 6 4 4 4 4 4 3 2 2 4 5 5 6 6 6 5 4 4 3 3 4 6 7 8 8 7 7 8 9 9 10 10 11 12 13 14
20 17 10 11 13 8 7 7 6 3 4 5 4 3 2 1 2 4 5 5 5 5 5 4 3 2 3 4 5 7 8 9 9 9 9 10 10 11 12 13 14 15 16
19 16 9 10 10 11 11 10 6 5 3 4 4 2 2 2 1 2 3 4 4 5 5 4 3 1 2 4 5 7 9 10 10 10 11 12 13 13 14 15 16 17 18
18 16 13 13 12 10 11 11 7 5 4 5 5 4 2 1 1 1 1 3 3 5 5 5 4 2 2 3 5 6 8 9 10 12 13 14 15 16 17 18 19 19 20
18 16 14 12 13 13 13 14 12 10 6 4 3 4 5 6 3 1 0 1 3 3 3 5 4 2 2 3 4 6 7 9 11 13 15 16 17 18 19 20 21 21 21
16 17 15 14 15 13 13 14 12 8 8 6 3 1 2 4 4 3 1 1 2 3 3 3 3 3 4 5 5 6 8 10 12 15 17 19 20 22 22 23 23 23 22
13 14 15 14 14 13 13 13 12 10 7 7 6 4 3 2 2 4 3 2 1 2 2 2 4 4 5 5 6 8 10 12 15 17 19 21 23 24 24 24 24 24 23
10 13 13 13 13 12 12 12 12 12 8 8 6 5 4 4 4 4 3 3 2 2 1 2 4 5 6 4 5 9 12 14 17 19 21 23 24 24 24 24 24 24 24
10 14 14 13 12 11 11 10 10 10 9 9 8 4 4 3 3 3 3 3 1 1 2 1 3 6 5 1 6 12 13 16 19 21 23 24 24 24 24 24 25 25 25
12 12 13 13 12 12 11 10 8 8 7 8 7 7 6 4 4 3 3 4 2 1 2 3 1 4 5 2 8 12 12 16 21 22 23 24 24 24 24 24 25 25 25
6 9 10 10 11 12 12 12 9 9 10 9 8 8 6 4 5 4 3 3 4 3 3 3 2 2 5 6 10 12 11 17 21 22 23 24 24 24 24 25 25 26 26
7 10 10 11 11 12 12 11 11 11 11 9 8 9 7 5 4 4 3 2 2 4 4 3 4 3 5 8 13 14 16 20 21 22 24 24 25 25 26 26 26 26 26
9 11 11 12 12 13 12 12 12 13 13 11 9 9 8 6 4 3 3 2 2 3 5 4 3 3 3 6 12 15 16 16 17 22 25 25 25 25 25 25 26 26 26
10 12 13 13 13 13 13 14 14 12 12 11 9 8 7 5 4 3 2 3 3 4 5 6 3 3 5 6 7 8 13 16 17 23 25 25 25 25 24 24 25 25 26
11 12 12 13 13 13 13 13 13 12 11 10 9 8 6 5 3 2 3 4 4 4 5 5 5 4 5 5 6 7 9 11 17 19 22 23 23 23 24 25 26 27 28
11 12 13 13 13 14 14 14 13 12 11 10 8 7 5 3 3 4 4 4 4 5 5 5 6 5 5 6 5 6 9 7 10 15 19 20 21 23 25 27 28 28 28
13 13 15 14 14 12 12 14 12 11 10 9 7 5 3 2 3 3 3 4 5 4 4 5 6 5 5 5 6 6 11 9 10 10 8 8 11 13 19 24 26 26 27
14 14 15 14 13 12 18 17 13 10 8 7 6 4 2 1 1 3 6 7 6 5 5 4 5 7 8 7 7 9 10 12 8 4 5 10 9 13 11 16 24 28 28
14 14 14 14 14 15 18 17 14 9 8 6 5 3 2 1 3 3 6 8 9 12 12 8 8 8 9 9 9 11 10 11 12 8 10 15 10 13 11 20 27 29 30
12 12 12 12 12 13 16 15 13 8 6 5 4 3 1 2 3 6 5 5 6 7 9 8 7 10 10 10 10 11 11 10 10 9 7 10 12 13 13 13 26 29 29
11 10 10 10 10 10 12 12 10 5 4 4 2 1 1 3 8 11 6 5 6 6 11 16 17 17 20 21 17 8 7 9 12 9 5 5 6 7 10 12 17 22 23
10 9 9 8 8 6 8 8 8 4 3 2 1 1 5 7 10 11 6 5 6 7 8 8 9 12 13 15 16 7 5 7 8 7 4 4 4 5 7 5 7 10 15
Wind_Direction
178 178 177 175 172 165 154 141 133 127 120 116 121 125 121 118 115 111 112 115 117 118 112 102 89 77 67 58 52 45 38 32 28 23 20 18 16 12 8 5 3 358 352
185 181 177 178 178 175 167 156 147 138 128 122 115 124 130 129 125 120 117 118 120 122 119 107 93 78 64 53 45 39 32 27 20 15 11 9 8 4 0 358 355 350 344
190 186 184 185 184 175 161 145 134 127 120 115 108 124 135 142 139 134 130 126 124 124 124 116 102 84 65 48 38 29 21 16 9 3 359 356 355 351 348 347 344 340 334
195 190 189 190 182 170 158 147 138 125 128 130 128 120 132 148 154 152 145 140 135 131 129 125 114 91 61 37 25 16 7 1 353 347 343 340 338 336 334 334 333 329 325
198 195 193 187 176 167 163 160 150 141 148 147 138 116 113 150 171 170 166 161 155 150 141 134 120 93 50 20 8 360 353 345 338 330 327 325 324 322 321 321 321 320 317
199 195 191 181 174 169 169 165 150 127 135 144 123 98 77 118 170 183 187 181 178 170 163 149 137 92 32 4 351 343 337 332 325 319 315 314 313 311 312 312 312 312 310
196 193 188 180 179 182 180 169 146 138 135 144 117 96 48 54 138 179 187 182 184 181 173 165 154 113 20 359 346 333 326 322 317 313 308 306 305 304 305 306 306 306 305
196 195 190 188 186 180 175 175 157 146 146 169 147 137 183 284 255 114 179 185 179 169 166 164 148 114 15 354 344 337 329 322 316 311 306 304 303 302 302 303 302 301 301
198 196 193 187 186 184 187 185 178 163 161 183 193 157 162 207 199 218 208 173 172 161 162 157 143 106 73 46 17 354 344 333 320 312 309 307 305 303 302 301 301 300 298
198 196 192 189 189 190 189 188 183 172 155 164 178 162 127 142 155 181 245 249 199 182 178 164 146 123 103 73 41 9 353 338 324 317 312 308 305 303 301 300 299 299 298
197 195 191 191 191 193 189 184 181 177 171 165 162 155 138 88 113 151 188 211 234 219 208 190 171 150 124 87 46 8 351 338 326 317 311 307 303 301 301 300 299 299 298
197 195 191 191 191 190 187 184 181 178 177 164 160 159 158 159 172 162 165 177 209 251 257 224 190 172 151 98 30 356 345 333 323 315 309 305 302 301 300 300 299 298 296
202 199 193 191 189 186 180 172 171 173 167 160 157 148 136 129 132 133 132 142 177 296 307 265 199 183 171 106 359 344 339 326 318 312 307 303 302 302 300 298 296 295 293
207 195 191 188 180 172 168 161 157 153 145 139 134 127 120 113 108 116 133 136 142 285 287 269 242 206 203 285 328 331 324 318 313 308 305 304 302 301 298 296 294 293 292
181 172 173 169 164 159 155 152 150 142 134 126 125 120 113 107 98 99 114 133 154 211 261 262 258 232 234 281 308 314 309 311 309 308 305 302 299 298 296 294 293 291 290
146 148 150 150 148 146 146 141 137 134 128 123 124 120 113 111 107 107 119 126 149 183 236 249 245 247 268 290 301 309 305 307 308 305 302 300 299 297 295 293 292 291 290
139 143 143 142 141 140 139 135 133 131 126 123 122 121 118 121 121 124 131 143 176 190 236 259 250 262 274 280 293 297 298 294 292 300 301 299 297 296 295 294 293 291 289
137 138 137 137 136 135 133 131 129 126 125 124 120 118 119 122 124 140 152 181 210 214 227 260 262 263 262 271 275 282 294 296 293 298 299 300 299 298 297 295 294 293 292
128 129 130 129 128 126 123 120 119 117 116 116 117 118 121 124 142 167 188 207 223 231 223 243 264 253 264 271 278 280 282 284 290 295 299 299 298 298 297 297 296 295 293
116 116 115 115 117 116 115 114 112 111 108 105 104 106 112 133 183 202 213 221 228 238 239 249 265 267 265 265 267 284 296 284 290 294 292 291 293 297 296 295 294 293 291
103 105 106 105 105 106 109 110 109 109 108 105 99 97 107 152 220 221 227 226 224 236 249 259 271 278 279 282 283 286 298 298 287 279 279 277 284 286 288 289 291 289 288
96 99 101 102 99 102 108 108 108 106 106 105 102 97 103 96 8 338 311 293 273 258 255 254 269 278 283 281 284 289 294 300 300 272 284 292 287 288 285 283 287 289 289
94 94 96 99 101 107 108 106 104 104 103 106 113 114 99 55 20 313 304 304 300 297 293 289 286 282 283 282 282 285 283 283 286 287 295 293 287 286 285 286 290 290 290
94 95 96 98 100 104 104 104 105 103 106 113 117 120 114 312 302 293 269 267 268 275 284 284 265 267 270 272 267 278 286 288 282 279 274 283 287 285 286 282 287 287 289
90 90 91 93 95 100 106 109 111 108 103 98 90 90 297 279 299 308 305 282 280 279 294 296 295 295 298 301 303 300 295 297 295 290 260 261 280 287 285 279 278 283 287
88 87 83 80 86 89 105 111 116 109 104 96 66 330 318 311 309 315 310 293 290 285 283 293 299 299 296 295 299 290 274 280 286 290 255 253 277 305 299 263 256 271 281
Height
1540 1542 1544 1545 1547 1549 1550 1551 1552 1553 1554 1555 1555 1555 1555 1554 1554 1554 1554 1554 1553 1553 1552 1552 1551 1550 1550 1550 1549 1548 1547 1547 1546 1546 1545 1544 1544 1543 1543 1542 1542 1542 1541
1537 1540 1542 1543 1545 1547 1548 1550 1551 1552 1553 1553 1553 1553 1553 1553 1553 1553 1552 1552 1552 1551 1551 1550 1550 1549 1549 1548 1548 1547 1546 1545 1545 1544 1543 1542 1541 1541 1540 1540 1539 1539 1538
1534 1536 1538 1540 1542 1544 1545 1547 1548 1549 1550 1551 1552 1552 1551 1551 1551 1551 1551 1550 1550 1550 1549 1549 1548 1548 1547 1547 1546 1545 1544 1543 1542 1541 1541 1540 1539 1538 1537 1537 1536 1535 1535
1530 1532 1534 1536 1539 1541 1542 1544 1546 1547 1548 1549 1549 1549 1549 1549 1549 1549 1548 1548 1548 1548 1547 1547 1547 1546 1545 1545 1544 1543 1542 1541 1540 1539 1538 1537 1536 1535 1534 1534 1533 1532 1531
1525 1527 1529 1532 1535 1537 1539 1541 1542 1544 1545 1546 1547 1547 1547 1547 1546 1546 1546 1546 1545 1545 1545 1545 1544 1544 1543 1542 1541 1541 1539 1538 1537 1535 1534 1533 1533 1532 1531 1530 1529 1528 1527
1520 1522 1525 1528 1530 1532 1534 1536 1538 1540 1542 1543 1543 1544 1544 1544 1544 1543 1543 1543 1543 1543 1543 1542 1542 1541 1540 1540 1538 1537 1536 1535 1533 1532 1531 1530 1529 1528 1528 1527 1525 1524 1523
1514 1517 1519 1522 1524 1526 1529 1532 1534 1535 1537 1539 1540 1541 1541 1541 1540 1540 1540 1540 1540 1540 1540 1539 1539 1538 1537 1536 1535 1534 1532 1531 1530 1528 1527 1526 1525 1524 1523 1522 1521 1520 1519
1508 1511 1513 1515 1518 1520 1523 1526 1528 1530 1532 1534 1536 1537 1537 1538 1536 1536 1537 1537 1537 1536 1536 1536 1535 1534 1533 1532 1531 1529 1527 1526 1525 1524 1523 1522 1521 1520 1519 1517 1516 1514 1513
1502 1504 1507 1509 1511 1514 1515 1518 1521 1524 1526 1529 1530 1532 1532 1531 1531 1532 1532 1533 1533 1532 1532 1532 1531 1530 1529 1528 1526 1524 1522 1521 1520 1518 1517 1517 1515 1514 1512 1511 1509 1508 1507
1494 1497 1500 1502 1504 1507 1509 1511 1514 1517 1520 1522 1524 1525 1527 1527 1527 1527 1528 1528 1528 1528 1528 1527 1527 1526 1524 1523 1521 1519 1517 1515 1514 1512 1511 1510 1508 1507 1505 1504 1502 1500 1499
1485 1489 1492 1495 1497 1499 1501 1504 1507 1510 1512 1515 1517 1518 1520 1521 1521 1522 1522 1523 1523 1523 1523 1523 1522 1521 1520 1518 1516 1513 1511 1509 1507 1505 1504 1502 1500 1499 1497 1495 1493 1492 1490
1476 1479 1483 1486 1489 1491 1494 1497 1499 1502 1505 1508 1510 1512 1514 1515 1515 1516 1517 1517 1518 1519 1518 1518 1517 1516 1514 1513 1510 1507 1505 1503 1500 1498 1496 1494 1492 1490 1488 1486 1484 1482 1480
1466 1470 1474 1477 1480 1483 1487 1490 1493 1496 1498 1501 1503 1505 1508 1509 1510 1511 1511 1512 1512 1513 1513 1513 1512 1511 1509 1507 1504 1501 1498 1496 1493 1490 1487 1485 1483 1480 1477 1475 1474 1472 1471
1458 1462 1465 1468 1472 1476 1479 1482 1485 1489 1492 1494 1496 1498 1501 1502 1504 1505 1507 1507 1507 1507 1507 1507 1506 1505 1503 1500 1497 1494 1490 1487 1484 1481 1479 1476 1473 1470 1468 1466 1464 1462 1461
1450 1453 1456 1460 1463 1467 1471 1474 1478 1481 1485 1487 1490 1492 1494 1496 1498 1499 1501 1502 1503 1501 1500 1500 1500 1498 1496 1494 1491 1486 1482 1479 1476 1473 1470 1467 1464 1461 1459 1457 1455 1453 1452
1443 1446 1449 1452 1456 1460 1464 1468 1472 1475 1478 1481 1484 1487 1489 1491 1493 1494 1495 1496 1497 1497 1495 1493 1493 1492 1490 1487 1484 1479 1475 1471 1468 1465 1462 1458 1455 1452 1450 1448 1446 1445 1443
1436 1439 1443 1446 1450 1454 1458 1462 1466 1469 1473 1476 1479 1482 1484 1486 1488 1489 1490 1490 1491 1491 1489 1487 1486 1485 1482 1480 1476 1473 1468 1464 1460 1457 1454 1450 1447 1444 1442 1440 1438 1436 1434
1431 1434 1438 1442 1446 1450 1454 1458 1461 1465 1468 1472 1475 1478 1480 1482 1483 1484 1484 1484 1485 1485 1483 1480 1478 1477 1474 1472 1468 1464 1460 1456 1453 1450 1446 1443 1439 1437 1434 1432 1430 1428 1425
1428 1431 1435 1438 1442 1446 1450 1454 1458 1462 1466 1469 1472 1475 1476 1478 1478 1479 1479 1479 1479 1479 1477 1474 1471 1469 1466 1464 1460 1456 1452 1448 1445 1442 1438 1435 1432 1429 1427 1424 1422 1418 1416
1426 1429 1432 1436 1440 1443 1448 1452 1456 1461 1464 1467 1469 1471 1473 1473 1474 1474 1474 1474 1474 1473 1471 1468 1464 1461 1459 1456 1453 1448 1443 1440 1437 1434 1431 1427 1425 1422 1420 1416 1413 1409 1406
1425 1428 1431 1434 1439 1443 1447 1452 1456 1460 1463 1465 1467 1468 1469 1469 1469 1469 1469 1468 1468 1466 1464 1461 1458 1455 1452 1450 1447 1442 1437 1432 1428 1427 1422 1419 1416 1413 1410 1407 1404 1400 1397
1425 1428 1432 1435 1440 1444 1449 1453 1456 1459 1461 1462 1464 1464 1465 1465 1465 1465 1465 1463 1462 1461 1458 1455 1452 1449 1446 1444 1441 1437 1432 1427 1421 1420 1415 1410 1409 1404 1401 1398 1394 1391 1388
1428 1431 1435 1439 1443 1447 1450 1453 1456 1458 1459 1460 1460 1461 1462 1462 1461 1461 1459 1458 1456 1455 1453 1451 1447 1444 1441 1438 1435 1431 1427 1423 1418 1414 1410 1401 1400 1396 1393 1389 1386 1383 1379
1432 1435 1439 1442 1445 1448 1451 1453 1455 1456 1457 1457 1458 1458 1459 1458 1457 1455 1453 1451 1449 1448 1446 1444 1441 1438 1436 1433 1430 1426 1422 1416 1411 1409 1405 1395 1390 1387 1382 1379 1377 1374 1370
1436 1439 1442 1445 1447 1449 1451 1452 1454 1455 1455 1456 1456 1455 1455 1454 1452 1450 1448 1445 1443 1442 1441 1438 1436 1433 1431 1428 1425 1420 1415 1410 1403 1400 1398 1391 1383 1377 1371 1368 1367 1364 1361
1441 1444 1446 1447 1449 1450 1452 1452 1453 1454 1454 1454 1453 1452 1450 1449 1447 1445 1443 1441 1438 1436 1434 1431 1430 1427 1425 1422 1419 1415 1410 1405 1399 1392 1389 1385 1377 1372 1360 1354 1354 1353 1351